Volver al catálogo

H-2A DEB *

ActivoSSO
NORAD 48551·DEBRIS·🇯🇵 Japan

Lanzado Oct 29, 2018 desde Tanegashima Space Center

Loading…

Próximos Pases (próximas 24 horas)

TLE

ActualizadoSource: Space-Track

Época: Sep 14, 2026, 08:23 UTC

1 48551U 18084DF  26257.34947722  .00000783  00000-0  14969-3 0  9994
2 48551  97.9326 124.6767 0030703  77.6518 282.8121 14.66238498295125

Sigue H-2A DEB * en tiempo real con AllMySat

Download on the App Store